Time,TemperatureF,DewpointF,PressureIn,WindDirection,WindDirectionDegrees,WindSpeedMPH,WindSpeedGustMPH,Humidity,HourlyPrecipIn,Conditions,Clouds,dailyrainin,SolarRadiationWatts/m^2,SoftwareType,DateUTC
2013-07-04 00:02:00,56.0,53.0,30.14,NNE,24,8.0,13.0,89,0.00,,,0.00,0.000000,,2013-07-04 07:02:00,
2013-07-04 00:11:00,56.0,53.0,30.14,NNE,14,8.0,13.0,89,0.00,,,0.00,0.000000,,2013-07-04 07:11:00,
2013-07-04 00:21:00,56.0,53.0,30.14,NNE,14,8.0,13.0,89,0.00,,,0.00,0.000000,,2013-07-04 07:21:00,
2013-07-04 00:34:00,56.0,53.0,30.14,NNE,30,9.0,14.0,89,0.00,,,0.00,0.000000,,2013-07-04 07:34:00,
2013-07-04 00:52:00,56.0,53.0,30.14,NNE,19,9.0,12.0,89,0.00,,,0.00,0.000000,,2013-07-04 07:52:00,
2013-07-04 01:02:00,56.0,53.0,30.14,NNE,17,9.0,14.0,89,0.00,,,0.00,0.000000,,2013-07-04 08:02:00,
2013-07-04 01:11:00,56.0,52.0,30.13,NNE,29,9.0,14.0,88,0.00,,,0.00,0.000000,,2013-07-04 08:11:00,
2013-07-04 01:21:00,56.0,52.0,30.13,NNE,29,9.0,14.0,88,0.00,,,0.00,0.000000,,2013-07-04 08:21:00,
2013-07-04 01:33:00,55.0,51.0,30.14,North,4,7.0,12.0,87,0.00,,,0.00,0.000000,,2013-07-04 08:33:00,
2013-07-04 01:42:00,54.0,51.0,30.14,NNE,19,8.0,11.0,89,0.00,,,0.00,0.000000,,2013-07-04 08:42:00,
2013-07-04 01:52:00,54.0,51.0,30.14,NNE,19,8.0,11.0,89,0.00,,,0.00,0.000000,,2013-07-04 08:52:00,
2013-07-04 02:02:00,53.0,50.0,30.14,NNE,13,7.0,10.0,89,0.00,,,0.00,0.000000,,2013-07-04 09:02:00,
2013-07-04 02:11:00,53.0,50.0,30.14,NNE,13,7.0,10.0,89,0.00,,,0.00,0.000000,,2013-07-04 09:11:00,
2013-07-04 02:22:00,53.0,50.0,30.14,North,11,8.0,10.0,90,0.00,,,0.00,0.000000,,2013-07-04 09:22:00,
2013-07-04 02:32:00,53.0,50.0,30.13,NNE,22,7.0,13.0,91,0.00,,,0.00,0.000000,,2013-07-04 09:32:00,
2013-07-04 02:42:00,54.0,51.0,30.13,NNE,13,6.0,13.0,91,0.00,,,0.00,0.000000,,2013-07-04 09:42:00,
2013-07-04 02:52:00,54.0,51.0,30.13,NNE,13,6.0,13.0,91,0.00,,,0.00,0.000000,,2013-07-04 09:52:00,
2013-07-04 03:01:00,54.0,51.0,30.13,NNE,14,6.0,10.0,90,0.00,,,0.00,0.000000,,2013-07-04 10:01:00,
2013-07-04 03:11:00,53.0,50.0,30.13,NNE,15,5.0,11.0,90,0.00,,,0.00,0.000000,,2013-07-04 10:11:00,
2013-07-04 03:22:00,53.0,50.0,30.13,NNE,15,5.0,11.0,90,0.00,,,0.00,0.000000,,2013-07-04 10:22:00,
2013-07-04 03:33:00,52.0,49.0,30.14,North,2,7.0,9.0,91,0.00,,,0.00,0.000000,,2013-07-04 10:33:00,
2013-07-04 03:42:00,52.0,49.0,30.13,NNE,13,6.0,10.0,91,0.00,,,0.00,0.000000,,2013-07-04 10:42:00,
2013-07-04 03:53:00,52.0,49.0,30.13,NNE,13,6.0,10.0,91,0.00,,,0.00,0.000000,,2013-07-04 10:53:00,
2013-07-04 04:02:00,51.0,48.0,30.13,NNE,17,6.0,9.0,91,0.00,,,0.00,0.000000,,2013-07-04 11:02:00,
2013-07-04 04:11:00,51.0,49.0,30.13,NE,39,5.0,9.0,92,0.00,,,0.00,0.000000,,2013-07-04 11:11:00,
2013-07-04 04:22:00,51.0,49.0,30.13,NE,39,5.0,9.0,92,0.00,,,0.00,0.000000,,2013-07-04 11:22:00,
2013-07-04 04:33:00,51.0,49.0,30.13,North,7,5.0,9.0,92,0.00,,,0.00,0.000000,,2013-07-04 11:33:00,
2013-07-04 04:43:00,51.0,49.0,30.13,North,4,6.0,8.0,92,0.00,,,0.00,0.000000,,2013-07-04 11:43:00,
2013-07-04 04:53:00,51.0,49.0,30.13,North,4,6.0,8.0,92,0.00,,,0.00,0.000000,,2013-07-04 11:53:00,
2013-07-04 05:01:00,51.0,49.0,30.14,North,9,6.0,8.0,92,0.00,,,0.00,0.000000,,2013-07-04 12:01:00,
2013-07-04 05:11:00,50.0,48.0,30.14,North,4,6.0,8.0,93,0.00,,,0.00,0.000000,,2013-07-04 12:11:00,
2013-07-04 05:22:00,50.0,48.0,30.14,North,4,6.0,8.0,93,0.00,,,0.00,0.000000,,2013-07-04 12:22:00,
2013-07-04 05:33:00,50.0,48.0,30.14,North,4,6.0,8.0,93,0.00,,,0.00,0.000000,,2013-07-04 12:33:00,
2013-07-04 05:43:00,51.0,49.0,30.14,NNE,14,5.0,9.0,93,0.00,,,0.00,0.000000,,2013-07-04 12:43:00,
2013-07-04 05:52:00,51.0,49.0,30.14,NNE,14,5.0,9.0,93,0.00,,,0.00,0.000000,,2013-07-04 12:52:00,
2013-07-04 06:11:00,51.0,49.0,30.15,NNE,29,6.0,10.0,93,0.00,,,0.00,5.000000,,2013-07-04 13:11:00,
2013-07-04 06:22:00,52.0,50.0,30.15,NNE,20,8.0,11.0,94,0.00,,,0.00,11.000000,,2013-07-04 13:22:00,
2013-07-04 06:43:00,53.0,51.0,30.15,NNE,22,7.0,12.0,94,0.00,,,0.00,18.000000,,2013-07-04 13:43:00,
2013-07-04 06:53:00,54.0,52.0,30.15,NE,43,9.0,13.0,93,0.00,,,0.00,21.000000,,2013-07-04 13:53:00,
2013-07-04 07:02:00,55.0,52.0,30.15,NNE,25,5.0,15.0,91,0.00,,,0.00,28.000000,,2013-07-04 14:02:00,
2013-07-04 07:11:00,55.0,52.0,30.15,NNE,25,5.0,15.0,91,0.00,,,0.00,28.000000,,2013-07-04 14:11:00,
2013-07-04 07:22:00,56.0,53.0,30.15,NNE,15,6.0,13.0,90,0.00,,,0.00,121.000000,,2013-07-04 14:22:00,
2013-07-04 07:33:00,56.0,53.0,30.15,NNE,15,6.0,13.0,90,0.00,,,0.00,121.000000,,2013-07-04 14:33:00,
2013-07-04 07:43:00,58.0,54.0,30.15,NE,43,6.0,17.0,87,0.00,,,0.00,206.000000,,2013-07-04 14:43:00,
2013-07-04 07:53:00,58.0,54.0,30.15,NE,43,6.0,17.0,87,0.00,,,0.00,206.000000,,2013-07-04 14:53:00,
2013-07-04 08:01:00,58.0,54.0,30.15,North,8,10.0,14.0,86,0.00,,,0.00,246.000000,,2013-07-04 15:01:00,
2013-07-04 08:11:00,58.0,54.0,30.15,North,8,10.0,14.0,86,0.00,,,0.00,246.000000,,2013-07-04 15:11:00,
2013-07-04 08:23:00,59.0,54.0,30.15,NNE,16,9.0,14.0,84,0.00,,,0.00,294.000000,,2013-07-04 15:23:00,
2013-07-04 08:33:00,59.0,54.0,30.15,North,360,9.0,15.0,82,0.00,,,0.00,334.000000,,2013-07-04 15:33:00,
2013-07-04 08:43:00,57.0,53.0,30.16,North,356,7.0,10.0,86,0.00,,,0.00,374.000000,,2013-07-04 15:43:00,
2013-07-04 08:52:00,57.0,53.0,30.16,North,356,7.0,10.0,86,0.00,,,0.00,374.000000,,2013-07-04 15:52:00,
2013-07-04 09:02:00,55.0,52.0,30.16,North,360,7.0,12.0,88,0.00,,,0.00,209.000000,,2013-07-04 16:02:00,
2013-07-04 09:11:00,55.0,52.0,30.16,North,360,7.0,9.0,88,0.00,,,0.00,160.000000,,2013-07-04 16:11:00,
2013-07-04 09:22:00,55.0,52.0,30.16,North,360,7.0,9.0,88,0.00,,,0.00,160.000000,,2013-07-04 16:22:00,
2013-07-04 09:33:00,56.0,52.0,30.16,NNW,344,6.0,10.0,88,0.00,,,0.00,183.000000,,2013-07-04 16:33:00,
2013-07-04 09:52:00,57.0,53.0,30.16,North,11,8.0,13.0,87,0.00,,,0.00,554.000000,,2013-07-04 16:52:00,
2013-07-04 10:01:00,57.0,53.0,30.16,NNE,29,9.0,12.0,86,0.00,,,0.00,578.000000,,2013-07-04 17:01:00,
2013-07-04 10:11:00,58.0,54.0,30.16,NNE,12,9.0,13.0,86,0.00,,,0.00,619.000000,,2013-07-04 17:11:00,
2013-07-04 10:22:00,58.0,54.0,30.16,NNE,12,9.0,13.0,86,0.00,,,0.00,619.000000,,2013-07-04 17:22:00,
2013-07-04 10:33:00,59.0,54.0,30.15,North,7,13.0,17.0,85,0.00,,,0.00,661.000000,,2013-07-04 17:33:00,
2013-07-04 10:43:00,59.0,54.0,30.15,North,11,12.0,18.0,84,0.00,,,0.00,691.000000,,2013-07-04 17:43:00,
2013-07-04 10:53:00,59.0,54.0,30.15,North,11,12.0,18.0,84,0.00,,,0.00,691.000000,,2013-07-04 17:53:00,
2013-07-04 11:01:00,60.0,55.0,30.16,North,10,10.0,18.0,84,0.00,,,0.00,721.000000,,2013-07-04 18:01:00,
2013-07-04 11:11:00,60.0,55.0,30.16,North,10,10.0,18.0,84,0.00,,,0.00,721.000000,,2013-07-04 18:11:00,
2013-07-04 11:22:00,60.0,55.0,30.15,NNE,15,12.0,17.0,84,0.00,,,0.00,754.000000,,2013-07-04 18:22:00,
2013-07-04 11:33:00,60.0,55.0,30.15,NNE,15,11.0,15.0,84,0.00,,,0.00,784.000000,,2013-07-04 18:33:00,
2013-07-04 11:43:00,61.0,56.0,30.15,NNE,22,12.0,16.0,83,0.00,,,0.00,807.000000,,2013-07-04 18:43:00,
2013-07-04 11:52:00,61.0,56.0,30.15,NNE,22,12.0,16.0,83,0.00,,,0.00,807.000000,,2013-07-04 18:52:00,
2013-07-04 12:01:00,61.0,55.0,30.16,North,7,12.0,16.0,82,0.00,,,0.00,833.000000,,2013-07-04 19:01:00,
2013-07-04 12:11:00,61.0,55.0,30.16,North,9,12.0,19.0,81,0.00,,,0.00,853.000000,,2013-07-04 19:11:00,
2013-07-04 12:22:00,61.0,55.0,30.16,North,9,12.0,19.0,81,0.00,,,0.00,853.000000,,2013-07-04 19:22:00,
2013-07-04 12:33:00,62.0,56.0,30.16,North,11,13.0,17.0,82,0.00,,,0.00,870.000000,,2013-07-04 19:33:00,
2013-07-04 12:53:00,62.0,56.0,30.16,North,11,13.0,17.0,82,0.00,,,0.00,886.000000,,2013-07-04 19:53:00,
2013-07-04 13:01:00,63.0,57.0,30.16,NNE,19,12.0,16.0,81,0.00,,,0.00,896.000000,,2013-07-04 20:01:00,
2013-07-04 13:11:00,62.0,56.0,30.16,NNE,18,11.0,16.0,81,0.00,,,0.00,905.000000,,2013-07-04 20:11:00,
2013-07-04 13:22:00,62.0,56.0,30.16,NNE,18,11.0,16.0,81,0.00,,,0.00,905.000000,,2013-07-04 20:22:00,
2013-07-04 13:33:00,63.0,57.0,30.16,North,8,13.0,17.0,81,0.00,,,0.00,909.000000,,2013-07-04 20:33:00,
2013-07-04 13:42:00,62.0,56.0,30.15,NNE,14,12.0,17.0,80,0.00,,,0.00,912.000000,,2013-07-04 20:42:00,
2013-07-04 13:53:00,62.0,56.0,30.15,NNE,14,12.0,17.0,80,0.00,,,0.00,912.000000,,2013-07-04 20:53:00,
2013-07-04 14:01:00,62.0,56.0,30.15,NNE,22,12.0,16.0,81,0.00,,,0.00,911.000000,,2013-07-04 21:01:00,
2013-07-04 14:11:00,63.0,57.0,30.15,North,9,12.0,17.0,80,0.00,,,0.00,904.000000,,2013-07-04 21:11:00,
2013-07-04 14:22:00,63.0,57.0,30.15,North,9,12.0,17.0,80,0.00,,,0.00,904.000000,,2013-07-04 21:22:00,
2013-07-04 14:32:00,63.0,57.0,30.15,North,6,11.0,16.0,82,0.00,,,0.00,900.000000,,2013-07-04 21:32:00,
2013-07-04 14:42:00,63.0,57.0,30.14,NNE,19,11.0,15.0,82,0.00,,,0.00,889.000000,,2013-07-04 21:42:00,
2013-07-04 14:52:00,63.0,57.0,30.14,NNE,19,11.0,15.0,82,0.00,,,0.00,889.000000,,2013-07-04 21:52:00,
2013-07-04 15:01:00,63.0,57.0,30.14,North,8,12.0,16.0,82,0.00,,,0.00,875.000000,,2013-07-04 22:01:00,
2013-07-04 15:11:00,63.0,57.0,30.14,NNE,13,13.0,18.0,81,0.00,,,0.00,861.000000,,2013-07-04 22:11:00,
2013-07-04 15:22:00,63.0,57.0,30.14,NNE,13,13.0,18.0,81,0.00,,,0.00,861.000000,,2013-07-04 22:22:00,
2013-07-04 15:33:00,63.0,57.0,30.14,North,10,12.0,17.0,82,0.00,,,0.00,844.000000,,2013-07-04 22:33:00,
2013-07-04 15:43:00,63.0,57.0,30.14,North,11,13.0,17.0,81,0.00,,,0.00,817.000000,,2013-07-04 22:43:00,
2013-07-04 15:52:00,63.0,57.0,30.14,North,11,13.0,17.0,81,0.00,,,0.00,817.000000,,2013-07-04 22:52:00,
2013-07-04 16:01:00,63.0,57.0,30.14,NNE,17,12.0,16.0,82,0.00,,,0.00,796.000000,,2013-07-04 23:01:00,
2013-07-04 16:11:00,63.0,57.0,30.13,North,6,13.0,18.0,82,0.00,,,0.00,765.000000,,2013-07-04 23:11:00,
2013-07-04 16:23:00,63.0,57.0,30.13,North,6,13.0,18.0,82,0.00,,,0.00,765.000000,,2013-07-04 23:23:00,
2013-07-04 16:33:00,63.0,57.0,30.13,NNE,15,13.0,18.0,81,0.00,,,0.00,738.000000,,2013-07-04 23:33:00,
2013-07-04 16:42:00,63.0,57.0,30.13,North,4,13.0,17.0,82,0.00,,,0.00,705.000000,,2013-07-04 23:42:00,
2013-07-04 16:52:00,63.0,57.0,30.13,North,4,13.0,17.0,82,0.00,,,0.00,705.000000,,2013-07-04 23:52:00,
2013-07-04 17:01:00,63.0,58.0,30.12,NNE,13,12.0,19.0,83,0.00,,,0.00,673.000000,,2013-07-05 00:01:00,
2013-07-04 17:11:00,63.0,58.0,30.12,NNE,13,12.0,19.0,83,0.00,,,0.00,673.000000,,2013-07-05 00:11:00,
2013-07-04 17:21:00,62.0,56.0,30.12,NNE,13,14.0,18.0,82,0.00,,,0.00,640.000000,,2013-07-05 00:21:00,
2013-07-04 17:32:00,62.0,57.0,30.11,North,360,13.0,17.0,83,0.00,,,0.00,598.000000,,2013-07-05 00:32:00,
2013-07-04 17:43:00,62.0,56.0,30.11,North,9,14.0,19.0,82,0.00,,,0.00,561.000000,,2013-07-05 00:43:00,
2013-07-04 17:52:00,62.0,56.0,30.11,North,9,14.0,19.0,82,0.00,,,0.00,561.000000,,2013-07-05 00:52:00,
2013-07-04 18:01:00,62.0,56.0,30.11,North,9,14.0,19.0,82,0.00,,,0.00,561.000000,,2013-07-05 01:01:00,
2013-07-04 18:11:00,61.0,56.0,30.11,North,6,13.0,18.0,83,0.00,,,0.00,519.000000,,2013-07-05 01:11:00,
2013-07-04 18:21:00,61.0,56.0,30.11,North,6,13.0,18.0,83,0.00,,,0.00,519.000000,,2013-07-05 01:21:00,
2013-07-04 18:32:00,61.0,56.0,30.11,North,6,13.0,18.0,83,0.00,,,0.00,519.000000,,2013-07-05 01:32:00,
2013-07-04 18:42:00,61.0,56.0,30.11,North,9,14.0,21.0,83,0.00,,,0.00,478.000000,,2013-07-05 01:42:00,
2013-07-04 18:52:00,61.0,56.0,30.11,North,9,14.0,21.0,83,0.00,,,0.00,478.000000,,2013-07-05 01:52:00,
2013-07-04 19:02:00,60.0,55.0,30.11,NNE,12,15.0,21.0,83,0.00,,,0.00,381.000000,,2013-07-05 02:02:00,
2013-07-04 19:11:00,60.0,55.0,30.11,NNE,12,15.0,21.0,83,0.00,,,0.00,381.000000,,2013-07-05 02:11:00,
2013-07-04 19:21:00,60.0,55.0,30.11,NNE,12,15.0,21.0,83,0.00,,,0.00,381.000000,,2013-07-05 02:21:00,
2013-07-04 19:32:00,60.0,55.0,30.11,NNE,12,15.0,21.0,83,0.00,,,0.00,381.000000,,2013-07-05 02:32:00,
2013-07-04 19:42:00,60.0,55.0,30.11,North,8,13.0,19.0,85,0.00,,,0.00,304.000000,,2013-07-05 02:42:00,
2013-07-04 19:52:00,60.0,55.0,30.11,North,8,13.0,19.0,85,0.00,,,0.00,304.000000,,2013-07-05 02:52:00,
2013-07-04 20:02:00,60.0,55.0,30.11,North,8,13.0,19.0,85,0.00,,,0.00,304.000000,,2013-07-05 03:02:00,
2013-07-04 20:11:00,59.0,54.0,30.10,North,8,12.0,19.0,85,0.00,,,0.00,171.000000,,2013-07-05 03:11:00,
2013-07-04 20:21:00,59.0,54.0,30.10,North,8,12.0,19.0,85,0.00,,,0.00,171.000000,,2013-07-05 03:21:00,
2013-07-04 20:32:00,59.0,54.0,30.10,North,8,12.0,19.0,85,0.00,,,0.00,171.000000,,2013-07-05 03:32:00,
2013-07-04 20:42:00,59.0,54.0,30.10,North,8,12.0,19.0,85,0.00,,,0.00,171.000000,,2013-07-05 03:42:00,
2013-07-04 20:51:00,58.0,54.0,30.10,NNE,20,14.0,21.0,86,0.00,,,0.00,121.000000,,2013-07-05 03:51:00,
2013-07-04 21:01:00,58.0,54.0,30.10,NNE,20,14.0,21.0,86,0.00,,,0.00,121.000000,,2013-07-05 04:01:00,
2013-07-04 21:11:00,55.0,52.0,30.10,North,8,16.0,19.0,88,0.00,,,0.00,14.000000,,2013-07-05 04:11:00,
2013-07-04 21:21:00,55.0,52.0,30.10,North,8,16.0,19.0,88,0.00,,,0.00,14.000000,,2013-07-05 04:21:00,
2013-07-04 21:33:00,55.0,52.0,30.10,NNE,13,13.0,21.0,89,0.00,,,0.00,5.000000,,2013-07-05 04:33:00,
2013-07-04 21:43:00,55.0,52.0,30.10,NNE,13,13.0,21.0,89,0.00,,,0.00,5.000000,,2013-07-05 04:43:00,
2013-07-04 21:53:00,54.0,51.0,30.10,North,8,9.0,13.0,90,0.00,,,0.00,0.000000,,2013-07-05 04:53:00,
2013-07-04 22:01:00,53.0,50.0,30.10,North,11,10.0,13.0,91,0.00,,,0.00,0.000000,,2013-07-05 05:01:00,
2013-07-04 22:11:00,53.0,50.0,30.10,North,11,10.0,13.0,91,0.00,,,0.00,0.000000,,2013-07-05 05:11:00,
2013-07-04 22:21:00,53.0,50.0,30.11,North,8,11.0,15.0,91,0.00,,,0.00,0.000000,,2013-07-05 05:21:00,
2013-07-04 22:33:00,53.0,50.0,30.11,NNE,15,9.0,14.0,91,0.00,,,0.00,0.000000,,2013-07-05 05:33:00,
2013-07-04 22:43:00,53.0,51.0,30.11,North,8,11.0,15.0,92,0.00,,,0.00,0.000000,,2013-07-05 05:43:00,
2013-07-04 22:52:00,53.0,51.0,30.11,North,8,11.0,15.0,92,0.00,,,0.00,0.000000,,2013-07-05 05:52:00,
2013-07-04 23:01:00,53.0,51.0,30.11,NNE,23,10.0,14.0,92,0.00,,,0.00,0.000000,,2013-07-05 06:01:00,
2013-07-04 23:12:00,53.0,51.0,30.11,North,350,8.0,11.0,92,0.00,,,0.00,0.000000,,2013-07-05 06:12:00,
2013-07-04 23:23:00,53.0,51.0,30.11,North,350,8.0,11.0,92,0.00,,,0.00,0.000000,,2013-07-05 06:23:00,
2013-07-04 23:34:00,52.0,50.0,30.10,North,6,7.0,13.0,92,0.00,,,0.00,0.000000,,2013-07-05 06:34:00,
2013-07-04 23:43:00,53.0,51.0,30.10,North,11,7.0,11.0,92,0.00,,,0.00,0.000000,,2013-07-05 06:43:00,
2013-07-04 23:52:00,53.0,51.0,30.10,North,11,7.0,11.0,92,0.00,,,0.00,0.000000,,2013-07-05 06:52:00,